Hourly Data Report for March 14, 2004

SHERBROOKE A
QUEBEC

45°26'00.000" N
71°41'00.000" W
241.40 m
7028124
71610
YSC

Download Data

Hourly Data (March 2004)
Hourly Data Report for March 14, 2004
TIME
LST
Temp Definition
°C
Dew Point Definition
°C
Rel Hum Definition
%
Precip. Amount Definition
mm

Wind Dir Definition
10's deg

Wind Spd Definition
km/h
Visibility Definition
km
Stn Press Definition
kPa
Hmdx Definition


Wind Chill Definition


Weather Definition


00:00 -10.5 -19.8 46   30 7 15.0 99.90   -15  
01:00 -11.1 -20.1 47   28 4 15.0 99.95   -14  
02:00 -11.3 -20.6 46   33 9 15.0 99.97   -16  
03:00 -16.8 -23.5 56   13 6 15.0 100.00   -21  
04:00 -14.5 -22.0 53     0 15.0 100.02      
05:00 -18.9 -24.1 63     0 15.0 100.07      
06:00 -19.5 -24.7 63   9 6 15.0 100.13   -24  
07:00 -17.1 -23.4 58   16 4 15.0 100.14   -20  
08:00 -11.7 -20.5 48     0 24.1 100.13     Mainly Clear
09:00 -7.7 -19.2 39     0 24.1 100.08     Mainly Clear
10:00 -4.5 -19.1 31     0 24.1 99.95     Mainly Clear
11:00 -4.2 -19.0 31     0 24.1 99.85     Mainly Clear
12:00 -2.8 -18.4 29   36 4 24.1 99.71   -4 Mostly Cloudy
13:00 -2.0 -18.1 28   36 6 24.1 99.55   -4 Mostly Cloudy
14:00 -0.4 -17.4 26   4 6 24.1 99.38   -2 Mostly Cloudy
15:00 0.6 -16.4 27   6 9 24.1 99.16     Mostly Cloudy
16:00 1.7 -14.6 29   6 7 24.1 98.97     Mostly Cloudy
17:00 3.5 -14.8 25   15 15 24.1 98.84     Mostly Cloudy
18:00 2.0 -13.3 31   13 9 15.0 98.75      
19:00 1.6 -11.8 36   17 4 15.0 98.71      
20:00 3.4 -11.4 33   17 17 15.0 98.63      
21:00 3.0 -11.7 33   19 11 15.0 98.55      
22:00 2.8 -10.2 38   20 22 15.0 98.46      
23:00 2.0 -8.8 45   19 20 15.0 98.36      

Notes on Data Quality.

Legend

  • E = Estimated
  • M = Missing
  • NA = Not Available*
  • [empty] = Indicates an unobserved value
Date modified: